Regional Weather Roundup
Issued by NWS

Home | Current Version | Previous Version | Text Only | Print | Product List | Glossary On
Versions: 1 2 3 4 5 6 7 8 9 10 11 12 13 14 15 16 17 18 19 20 21 22 23 24 25 26 27 28 29 30 31 32 33 34 35 36 37 38 39 40 41 42 43 44 45 46 47 48 49 50
000
ASUS43 KFSD 301410
RWRSD

WEATHER ROUNDUP FOR SOUTH DAKOTA
NATIONAL WEATHER SERVICE SIOUX FALLS SD
900 AM CDT MON MAR 30 2015

NOTE: "FAIR" INDICATES FEW OR NO CLOUDS BELOW 12,000 FEET WITH NO
SIGNIFICANT WEATHER AND/OR OBSTRUCTIONS TO VISIBILITY.


SDZ001>005-009-010-012>017-301500-
NORTHWEST AND NORTH CENTRAL SOUTH DAKOTA

CITY           SKY/WX    TMP DP  RH WIND       PRES   REMARKS
BUFFALO          N/A     43  31  62 W10       29.93R
FAITH            N/A     49  27  42 W16       29.96R
MOBRIDGE       PTSUNNY   44  33  65 CALM      29.87R
$$

SDZ012>016-024>037-041>051-057-063-072>074-301500-
SOUTHWEST AND SOUTH CENTRAL SOUTH DAKOTA

CITY           SKY/WX    TMP DP  RH WIND       PRES   REMARKS
RAPID CTY ARPT PTSUNNY   51  25  36 NW10      30.02R
PIERRE         CLOUDY    41  30  65 W8        29.92S
CUSTER         PTSUNNY   47  18  31 W8        30.07R
ELLSWORTH AFB  PTSUNNY   49  25  39 NW9       30.02R
PHILIP         PTSUNNY   42  28  57 W12       29.98R
PINE RIDGE     SUNNY     35  25  66 CALM      30.05R
SPEARFISH      FAIR      50  25  37 W15G22    30.06R
WINNER         FAIR      51  24  34 W6        29.95F
$$

SDZ004>011-016>023-039-040-301500-
NORTHEAST SOUTH DAKOTA

CITY           SKY/WX    TMP DP  RH WIND       PRES   REMARKS
ABERDEEN       PTSUNNY   39  28  64 S7        29.88F
WATERTOWN      MOSUNNY   40  29  64 S7        29.90F
SISSETON         N/A     48  30  49 SW10      29.85F
$$

SDZ017-020-022-023-036>040-048>070-301500-
SOUTHEAST SOUTH DAKOTA

CITY           SKY/WX    TMP DP  RH WIND       PRES   REMARKS
SIOUX FALLS    PTSUNNY   47  24  40 SW9       29.95F
HURON          PTSUNNY   41  25  53 S3        29.91S
CHAMBERLAIN    PTSUNNY   45  25  45 W6        29.94S
MITCHELL       PTSUNNY   51  20  29 SW15      29.92F
YANKTON        PTSUNNY   50  21  32 S7        29.98F
$$

ABBREVIATIONS USED IN REMARKS
   TC - TEMPERATURE IN CELSIUS
  WCI - WIND CHILL INDEX
   HX - HEAT INDEX
  VSB - VISIBILITY



USA.gov is the U.S. government's official web portal to all federal, state and local government web resources and services.